owner,sensor,date,latitude,longitude,vertical_datum,sea_water_practical_salinity,qcFlag 
TABS,ioos:station:wmo:42048:1,2013-06-02T05:00:00Z,27.9396,-96.8429,2.0,24.4088,11111222 
TABS,ioos:station:wmo:42048:1,2013-06-02T05:30:00Z,27.9396,-96.8429,2.0,24.3816,11111222 
TABS,ioos:station:wmo:42048:1,2013-06-02T06:00:00Z,27.9396,-96.8429,2.0,24.3632,11111222 
TABS,ioos:station:wmo:42048:1,2013-06-02T06:30:00Z,27.9396,-96.8429,2.0,24.3013,11111222 
TABS,ioos:station:wmo:42048:1,2013-06-02T07:00:00Z,27.9396,-96.8429,2.0,24.288,11111222 
TABS,ioos:station:wmo:42048:1,2013-06-02T07:30:00Z,27.9396,-96.8429,2.0,24.2797,11111222 
TABS,ioos:station:wmo:42048:1,2013-06-02T08:00:00Z,27.9396,-96.8429,2.0,24.2729,11111222 
TABS,ioos:station:wmo:42048:1,2013-06-02T08:30:00Z,27.9396,-96.8429,2.0,24.2388,11111222 
TABS,ioos:station:wmo:42048:1,2013-06-02T09:00:00Z,27.9396,-96.8429,2.0,24.2316,11111222 
TABS,ioos:station:wmo:42048:1,2013-06-02T09:30:00Z,27.9396,-96.8429,2.0,24.2244,11111222 
TABS,ioos:station:wmo:42048:1,2013-06-02T10:00:00Z,27.9396,-96.8429,2.0,24.2241,11111222 
TABS,ioos:station:wmo:42048:1,2013-06-02T10:30:00Z,27.9396,-96.8429,2.0,24.2269,11111222 
TABS,ioos:station:wmo:42048:1,2013-06-02T11:00:00Z,27.9396,-96.8429,2.0,24.2323,11111222 
TABS,ioos:station:wmo:42048:1,2013-06-02T11:30:00Z,27.9396,-96.8429,2.0,24.2282,11111222 
TABS,ioos:station:wmo:42048:1,2013-06-02T12:00:00Z,27.9396,-96.8429,2.0,24.2679,11111222 
TABS,ioos:station:wmo:42048:1,2013-06-02T12:30:00Z,27.9396,-96.8429,2.0,24.2769,11111222 
TABS,ioos:station:wmo:42048:1,2013-06-02T13:00:00Z,27.9396,-96.8429,2.0,24.2978,11111222 
TABS,ioos:station:wmo:42048:1,2013-06-02T13:30:00Z,27.9396,-96.8429,2.0,24.3088,11111222 
TABS,ioos:station:wmo:42048:1,2013-06-02T14:00:00Z,27.9396,-96.8429,2.0,24.3193,11111222 
TABS,ioos:station:wmo:42048:1,2013-06-02T14:30:00Z,27.9396,-96.8429,2.0,24.35,11111222 
TABS,ioos:station:wmo:42048:1,2013-06-02T15:00:00Z,27.9396,-96.8429,2.0,24.3647,11111222 
TABS,ioos:station:wmo:42048:1,2013-06-02T15:30:00Z,27.9396,-96.8429,2.0,24.3413,11111222 
TABS,ioos:station:wmo:42048:1,2013-06-02T16:00:00Z,27.9396,-96.8429,2.0,24.3321,11111222 
TABS,ioos:station:wmo:42048:1,2013-06-02T16:30:00Z,27.9396,-96.8429,2.0,24.2976,11111222 
TABS,ioos:station:wmo:42048:1,2013-06-02T17:00:00Z,27.9396,-96.8429,2.0,24.2836,11111222 
TABS,ioos:station:wmo:42048:1,2013-06-02T17:30:00Z,27.9396,-96.8429,2.0,24.6324,11111222 
TABS,ioos:station:wmo:42048:1,2013-06-02T18:00:00Z,27.9396,-96.8429,2.0,24.6023,11111222 
TABS,ioos:station:wmo:42048:1,2013-06-02T18:30:00Z,27.9396,-96.8429,2.0,24.6367,11111222 
TABS,ioos:station:wmo:42048:1,2013-06-02T19:00:00Z,27.9396,-96.8429,2.0,24.6879,11111222 
TABS,ioos:station:wmo:42048:1,2013-06-02T19:30:00Z,27.9396,-96.8429,2.0,24.7121,11111222 
TABS,ioos:station:wmo:42048:1,2013-06-02T20:00:00Z,27.9396,-96.8429,2.0,24.668,11111222 
TABS,ioos:station:wmo:42048:1,2013-06-02T20:30:00Z,27.9396,-96.8429,2.0,24.8677,11111222 
TABS,ioos:station:wmo:42048:1,2013-06-02T21:00:00Z,27.9396,-96.8429,2.0,24.7745,11111222 
TABS,ioos:station:wmo:42048:1,2013-06-02T21:30:00Z,27.9396,-96.8429,2.0,24.6403,11111222 
TABS,ioos:station:wmo:42048:1,2013-06-02T22:00:00Z,27.9396,-96.8429,2.0,24.5311,11111222 
TABS,ioos:station:wmo:42048:1,2013-06-02T22:30:00Z,27.9396,-96.8429,2.0,24.4683,11111222 
TABS,ioos:station:wmo:42048:1,2013-06-02T23:00:00Z,27.9396,-96.8429,2.0,24.2179,11111222 
TABS,ioos:station:wmo:42048:1,2013-06-02T23:30:00Z,27.9396,-96.8429,2.0,24.1119,11111222 
TABS,ioos:station:wmo:42048:1,2013-06-03T00:00:00Z,27.9396,-96.8429,2.0,24.0573,11111222 
TABS,ioos:station:wmo:42048:1,2013-06-03T00:30:00Z,27.9396,-96.8429,2.0,23.9679,11111222 
TABS,ioos:station:wmo:42048:1,2013-06-03T01:00:00Z,27.9396,-96.8429,2.0,24.0212,11111222 
TABS,ioos:station:wmo:42048:1,2013-06-03T01:30:00Z,27.9396,-96.8429,2.0,23.945,11111222 
TABS,ioos:station:wmo:42048:1,2013-06-03T02:00:00Z,27.9396,-96.8429,2.0,23.632,11111222 
TABS,ioos:station:wmo:42048:1,2013-06-03T02:30:00Z,27.9396,-96.8429,2.0,23.1614,11111222 
TABS,ioos:station:wmo:42048:1,2013-06-03T03:00:00Z,27.9396,-96.8429,2.0,22.8671,11111222 
TABS,ioos:station:wmo:42048:1,2013-06-03T03:30:00Z,27.9396,-96.8429,2.0,22.7666,11111222 
TABS,ioos:station:wmo:42048:1,2013-06-03T04:00:00Z,27.9396,-96.8429,2.0,22.5438,11111222 
TABS,ioos:station:wmo:42048:1,2013-06-03T04:30:00Z,27.9396,-96.8429,2.0,22.4692,11111222 
TABS,ioos:station:wmo:42048:1,2013-06-03T05:00:00Z,27.9396,-96.8429,2.0,22.4811,11111222 
TABS,ioos:station:wmo:42048:1,2013-06-03T05:30:00Z,27.9396,-96.8429,2.0,22.5304,11111222 
TABS,ioos:station:wmo:42048:1,2013-06-03T06:00:00Z,27.9396,-96.8429,2.0,22.5099,11111222 
TABS,ioos:station:wmo:42048:1,2013-06-03T06:30:00Z,27.9396,-96.8429,2.0,22.4119,11111222 
TABS,ioos:station:wmo:42048:1,2013-06-03T07:00:00Z,27.9396,-96.8429,2.0,22.3714,11111222 
TABS,ioos:station:wmo:42048:1,2013-06-03T07:30:00Z,27.9396,-96.8429,2.0,22.3817,11111222 
TABS,ioos:station:wmo:42048:1,2013-06-03T08:00:00Z,27.9396,-96.8429,2.0,22.4454,11111222 
TABS,ioos:station:wmo:42048:1,2013-06-03T08:30:00Z,27.9396,-96.8429,2.0,22.6703,11111222 
TABS,ioos:station:wmo:42048:1,2013-06-03T09:00:00Z,27.9396,-96.8429,2.0,22.5651,11111222 
TABS,ioos:station:wmo:42048:1,2013-06-03T09:30:00Z,27.9396,-96.8429,2.0,22.5433,11111222 
TABS,ioos:station:wmo:42048:1,2013-06-03T10:00:00Z,27.9396,-96.8429,2.0,22.6121,11111222 
TABS,ioos:station:wmo:42048:1,2013-06-03T10:30:00Z,27.9396,-96.8429,2.0,22.9427,11111222 
TABS,ioos:station:wmo:42048:1,2013-06-03T11:00:00Z,27.9396,-96.8429,2.0,22.7172,11111222 
TABS,ioos:station:wmo:42048:1,2013-06-03T11:30:00Z,27.9396,-96.8429,2.0,22.9383,11111222 
TABS,ioos:station:wmo:42048:1,2013-06-03T12:00:00Z,27.9396,-96.8429,2.0,22.7847,11111222 
TABS,ioos:station:wmo:42048:1,2013-06-03T12:30:00Z,27.9396,-96.8429,2.0,22.7918,11111222 
TABS,ioos:station:wmo:42048:1,2013-06-03T13:00:00Z,27.9396,-96.8429,2.0,22.7534,11111222 
TABS,ioos:station:wmo:42048:1,2013-06-03T13:30:00Z,27.9396,-96.8429,2.0,22.7807,11111222 
TABS,ioos:station:wmo:42048:1,2013-06-03T14:00:00Z,27.9396,-96.8429,2.0,22.7745,11111222 
TABS,ioos:station:wmo:42048:1,2013-06-03T14:30:00Z,27.9396,-96.8429,2.0,22.7772,11111222 
TABS,ioos:station:wmo:42048:1,2013-06-03T15:00:00Z,27.9396,-96.8429,2.0,22.7939,11111222 
TABS,ioos:station:wmo:42048:1,2013-06-03T15:30:00Z,27.9396,-96.8429,2.0,22.8219,11111222 
TABS,ioos:station:wmo:42048:1,2013-06-03T16:00:00Z,27.9396,-96.8429,2.0,22.8473,11111222 
TABS,ioos:station:wmo:42048:1,2013-06-03T16:30:00Z,27.9396,-96.8429,2.0,22.8695,11111222 
TABS,ioos:station:wmo:42048:1,2013-06-03T17:00:00Z,27.9396,-96.8429,2.0,22.9379,11111222 
TABS,ioos:station:wmo:42048:1,2013-06-03T17:30:00Z,27.9396,-96.8429,2.0,22.9678,11111222 
TABS,ioos:station:wmo:42048:1,2013-06-03T18:00:00Z,27.9396,-96.8429,2.0,22.9975,11111222 
TABS,ioos:station:wmo:42048:1,2013-06-03T18:30:00Z,27.9396,-96.8429,2.0,23.0477,11111222 
TABS,ioos:station:wmo:42048:1,2013-06-03T19:00:00Z,27.9396,-96.8429,2.0,23.0428,11111222 
TABS,ioos:station:wmo:42048:1,2013-06-03T19:30:00Z,27.9396,-96.8429,2.0,23.041,11111222 
TABS,ioos:station:wmo:42048:1,2013-06-03T20:00:00Z,27.9396,-96.8429,2.0,23.0538,11111222 
TABS,ioos:station:wmo:42048:1,2013-06-03T20:30:00Z,27.9396,-96.8429,2.0,23.0791,11111222 
TABS,ioos:station:wmo:42048:1,2013-06-03T21:00:00Z,27.9396,-96.8429,2.0,23.1372,11111222 
TABS,ioos:station:wmo:42048:1,2013-06-03T21:30:00Z,27.9396,-96.8429,2.0,23.1028,11111222 
TABS,ioos:station:wmo:42048:1,2013-06-03T22:00:00Z,27.9396,-96.8429,2.0,23.0899,11111222 
TABS,ioos:station:wmo:42048:1,2013-06-03T22:30:00Z,27.9396,-96.8429,2.0,23.0897,11111222 
TABS,ioos:station:wmo:42048:1,2013-06-03T23:00:00Z,27.9396,-96.8429,2.0,23.0934,11111222 
TABS,ioos:station:wmo:42048:1,2013-06-03T23:30:00Z,27.9396,-96.8429,2.0,23.1026,11111222 
TABS,ioos:station:wmo:42048:1,2013-06-04T00:00:00Z,27.9396,-96.8429,2.0,23.1163,11111222 
TABS,ioos:station:wmo:42048:1,2013-06-04T00:30:00Z,27.9396,-96.8429,2.0,23.1322,11111222 
TABS,ioos:station:wmo:42048:1,2013-06-04T01:00:00Z,27.9396,-96.8429,2.0,23.148,11111222 
TABS,ioos:station:wmo:42048:1,2013-06-04T01:30:00Z,27.9396,-96.8429,2.0,23.1544,11111222 
TABS,ioos:station:wmo:42048:1,2013-06-04T02:00:00Z,27.9396,-96.8429,2.0,23.1589,11111222 
TABS,ioos:station:wmo:42048:1,2013-06-04T02:30:00Z,27.9396,-96.8429,2.0,23.1786,11111222 
TABS,ioos:station:wmo:42048:1,2013-06-04T03:00:00Z,27.9396,-96.8429,2.0,23.1837,11111222 
TABS,ioos:station:wmo:42048:1,2013-06-04T03:30:00Z,27.9396,-96.8429,2.0,23.1973,11111222 
TABS,ioos:station:wmo:42048:1,2013-06-04T04:00:00Z,27.9396,-96.8429,2.0,23.1928,11111222 
TABS,ioos:station:wmo:42048:1,2013-06-04T04:30:00Z,27.9396,-96.8429,2.0,23.1975,11111222 
TABS,ioos:station:wmo:42048:1,2013-06-04T05:00:00Z,27.9396,-96.8429,2.0,23.2019,11111222 
TABS,ioos:station:wmo:42048:1,2013-06-04T05:30:00Z,27.9396,-96.8429,2.0,23.2104,11111222 
TABS,ioos:station:wmo:42048:1,2013-06-04T06:00:00Z,27.9396,-96.8429,2.0,23.2252,11111222 
TABS,ioos:station:wmo:42048:1,2013-06-04T06:30:00Z,27.9396,-96.8429,2.0,23.2348,11111222 
TABS,ioos:station:wmo:42048:1,2013-06-04T07:00:00Z,27.9396,-96.8429,2.0,23.2455,11111222 
TABS,ioos:station:wmo:42048:1,2013-06-04T07:30:00Z,27.9396,-96.8429,2.0,23.2508,11111222 
TABS,ioos:station:wmo:42048:1,2013-06-04T08:00:00Z,27.9396,-96.8429,2.0,23.2676,11111222 
TABS,ioos:station:wmo:42048:1,2013-06-04T08:30:00Z,27.9396,-96.8429,2.0,23.3004,11111222 
TABS,ioos:station:wmo:42048:1,2013-06-04T09:00:00Z,27.9396,-96.8429,2.0,23.3132,11111222 
TABS,ioos:station:wmo:42048:1,2013-06-04T09:30:00Z,27.9396,-96.8429,2.0,23.3362,11111222 
TABS,ioos:station:wmo:42048:1,2013-06-04T10:00:00Z,27.9396,-96.8429,2.0,23.3357,11111222 
TABS,ioos:station:wmo:42048:1,2013-06-04T10:30:00Z,27.9396,-96.8429,2.0,23.3487,11111222 
TABS,ioos:station:wmo:42048:1,2013-06-04T11:00:00Z,27.9396,-96.8429,2.0,23.37,11111222 
TABS,ioos:station:wmo:42048:1,2013-06-04T11:30:00Z,27.9396,-96.8429,2.0,23.3906,11111222 
TABS,ioos:station:wmo:42048:1,2013-06-04T12:00:00Z,27.9396,-96.8429,2.0,23.4169,11111222 
TABS,ioos:station:wmo:42048:1,2013-06-04T12:30:00Z,27.9396,-96.8429,2.0,23.4014,11111222 
TABS,ioos:station:wmo:42048:1,2013-06-04T13:00:00Z,27.9396,-96.8429,2.0,23.4226,11111222 
TABS,ioos:station:wmo:42048:1,2013-06-04T13:30:00Z,27.9396,-96.8429,2.0,23.4215,11111222 
TABS,ioos:station:wmo:42048:1,2013-06-04T14:00:00Z,27.9396,-96.8429,2.0,23.4331,11111222 
TABS,ioos:station:wmo:42048:1,2013-06-04T14:30:00Z,27.9396,-96.8429,2.0,23.4642,11111222 
TABS,ioos:station:wmo:42048:1,2013-06-04T15:00:00Z,27.9396,-96.8429,2.0,23.4959,11111222 
TABS,ioos:station:wmo:42048:1,2013-06-04T15:30:00Z,27.9396,-96.8429,2.0,23.5388,11111222 
TABS,ioos:station:wmo:42048:1,2013-06-04T16:00:00Z,27.9396,-96.8429,2.0,23.5793,11111222 
TABS,ioos:station:wmo:42048:1,2013-06-04T16:30:00Z,27.9396,-96.8429,2.0,23.6322,11111222 
TABS,ioos:station:wmo:42048:1,2013-06-04T17:00:00Z,27.9396,-96.8429,2.0,23.6723,11111222 
TABS,ioos:station:wmo:42048:1,2013-06-04T17:30:00Z,27.9396,-96.8429,2.0,23.55,11111222 
TABS,ioos:station:wmo:42048:1,2013-06-04T18:00:00Z,27.9396,-96.8429,2.0,23.6067,11111222 
TABS,ioos:station:wmo:42048:1,2013-06-04T18:30:00Z,27.9396,-96.8429,2.0,23.6533,11111222 
TABS,ioos:station:wmo:42048:1,2013-06-04T19:00:00Z,27.9396,-96.8429,2.0,23.6691,11111222 
TABS,ioos:station:wmo:42048:1,2013-06-04T19:30:00Z,27.9396,-96.8429,2.0,23.727,11111222 
TABS,ioos:station:wmo:42048:1,2013-06-04T20:00:00Z,27.9396,-96.8429,2.0,23.7414,11111222 
TABS,ioos:station:wmo:42048:1,2013-06-04T20:30:00Z,27.9396,-96.8429,2.0,23.7111,11111222 
TABS,ioos:station:wmo:42048:1,2013-06-04T21:00:00Z,27.9396,-96.8429,2.0,23.7381,11111222 
TABS,ioos:station:wmo:42048:1,2013-06-04T21:30:00Z,27.9396,-96.8429,2.0,23.7553,11111222 
TABS,ioos:station:wmo:42048:1,2013-06-04T22:00:00Z,27.9396,-96.8429,2.0,23.7778,11111222 
TABS,ioos:station:wmo:42048:1,2013-06-04T22:30:00Z,27.9396,-96.8429,2.0,23.7993,11111222 
TABS,ioos:station:wmo:42048:1,2013-06-04T23:00:00Z,27.9396,-96.8429,2.0,23.8354,11111222 
TABS,ioos:station:wmo:42048:1,2013-06-04T23:30:00Z,27.9396,-96.8429,2.0,23.8457,11111222 
TABS,ioos:station:wmo:42048:1,2013-06-05T00:00:00Z,27.9396,-96.8429,2.0,23.8648,11111222 
TABS,ioos:station:wmo:42048:1,2013-06-05T00:30:00Z,27.9396,-96.8429,2.0,23.8788,11111222 
TABS,ioos:station:wmo:42048:1,2013-06-05T01:00:00Z,27.9396,-96.8429,2.0,23.9063,11111222 
TABS,ioos:station:wmo:42048:1,2013-06-05T01:30:00Z,27.9396,-96.8429,2.0,23.9135,11111222 
TABS,ioos:station:wmo:42048:1,2013-06-05T02:00:00Z,27.9396,-96.8429,2.0,23.9362,11111222 
TABS,ioos:station:wmo:42048:1,2013-06-05T02:30:00Z,27.9396,-96.8429,2.0,23.9388,11111222 
TABS,ioos:station:wmo:42048:1,2013-06-05T03:00:00Z,27.9396,-96.8429,2.0,23.9512,11111222 
TABS,ioos:station:wmo:42048:1,2013-06-05T03:30:00Z,27.9396,-96.8429,2.0,23.9739,11111222 
TABS,ioos:station:wmo:42048:1,2013-06-05T04:00:00Z,27.9396,-96.8429,2.0,23.9799,11111222 
TABS,ioos:station:wmo:42048:1,2013-06-05T04:30:00Z,27.9396,-96.8429,2.0,23.9986,11111222 
TABS,ioos:station:wmo:42048:1,2013-06-05T05:00:00Z,27.9396,-96.8429,2.0,24.0062,11111222 
TABS,ioos:station:wmo:42048:1,2013-06-05T05:30:00Z,27.9396,-96.8429,2.0,24.0114,11111222 
TABS,ioos:station:wmo:42048:1,2013-06-05T06:00:00Z,27.9396,-96.8429,2.0,24.0143,11111222 
TABS,ioos:station:wmo:42048:1,2013-06-05T06:30:00Z,27.9396,-96.8429,2.0,24.0308,11111222 
TABS,ioos:station:wmo:42048:1,2013-06-05T07:00:00Z,27.9396,-96.8429,2.0,24.0373,11111222 
TABS,ioos:station:wmo:42048:1,2013-06-05T07:30:00Z,27.9396,-96.8429,2.0,24.1119,11111222 
TABS,ioos:station:wmo:42048:1,2013-06-05T08:00:00Z,27.9396,-96.8429,2.0,24.1497,11111222 
TABS,ioos:station:wmo:42048:1,2013-06-05T08:30:00Z,27.9396,-96.8429,2.0,24.1844,11111222 
TABS,ioos:station:wmo:42048:1,2013-06-05T09:00:00Z,27.9396,-96.8429,2.0,24.2012,11111222 
TABS,ioos:station:wmo:42048:1,2013-06-05T09:30:00Z,27.9396,-96.8429,2.0,24.2187,11111222 
TABS,ioos:station:wmo:42048:1,2013-06-05T10:00:00Z,27.9396,-96.8429,2.0,24.257,11111222 
TABS,ioos:station:wmo:42048:1,2013-06-05T10:30:00Z,27.9396,-96.8429,2.0,24.3491,11111222 
TABS,ioos:station:wmo:42048:1,2013-06-05T11:00:00Z,27.9396,-96.8429,2.0,24.3929,11111222 
TABS,ioos:station:wmo:42048:1,2013-06-05T11:30:00Z,27.9396,-96.8429,2.0,24.4103,11111222 
TABS,ioos:station:wmo:42048:1,2013-06-05T12:00:00Z,27.9396,-96.8429,2.0,24.4266,11111222 
TABS,ioos:station:wmo:42048:1,2013-06-05T12:30:00Z,27.9396,-96.8429,2.0,24.5355,11111222 
TABS,ioos:station:wmo:42048:1,2013-06-05T13:00:00Z,27.9396,-96.8429,2.0,24.5912,11111222 
TABS,ioos:station:wmo:42048:1,2013-06-05T13:30:00Z,27.9396,-96.8429,2.0,24.6638,11111222 
TABS,ioos:station:wmo:42048:1,2013-06-05T14:00:00Z,27.9396,-96.8429,2.0,24.5814,11111222 
TABS,ioos:station:wmo:42048:1,2013-06-05T14:30:00Z,27.9396,-96.8429,2.0,24.4156,11111222 
TABS,ioos:station:wmo:42048:1,2013-06-05T15:00:00Z,27.9396,-96.8429,2.0,24.3706,11111222 
TABS,ioos:station:wmo:42048:1,2013-06-05T15:30:00Z,27.9396,-96.8429,2.0,24.2167,11111222 
TABS,ioos:station:wmo:42048:1,2013-06-05T16:00:00Z,27.9396,-96.8429,2.0,24.2486,11111222 
TABS,ioos:station:wmo:42048:1,2013-06-05T16:30:00Z,27.9396,-96.8429,2.0,24.2862,11111222 
TABS,ioos:station:wmo:42048:1,2013-06-05T17:00:00Z,27.9396,-96.8429,2.0,24.2863,11111222 
TABS,ioos:station:wmo:42048:1,2013-06-05T17:30:00Z,27.9396,-96.8429,2.0,24.3877,11111222 
TABS,ioos:station:wmo:42048:1,2013-06-05T18:00:00Z,27.9396,-96.8429,2.0,24.4707,11111222 
TABS,ioos:station:wmo:42048:1,2013-06-05T18:30:00Z,27.9396,-96.8429,2.0,24.5182,11111222 
TABS,ioos:station:wmo:42048:1,2013-06-05T19:00:00Z,27.9396,-96.8429,2.0,24.5446,11111222 
TABS,ioos:station:wmo:42048:1,2013-06-05T19:30:00Z,27.9396,-96.8429,2.0,24.6361,11111222 
TABS,ioos:station:wmo:42048:1,2013-06-05T20:00:00Z,27.9396,-96.8429,2.0,24.6965,11111222 
TABS,ioos:station:wmo:42048:1,2013-06-05T20:30:00Z,27.9396,-96.8429,2.0,24.6414,11111222 
TABS,ioos:station:wmo:42048:1,2013-06-05T21:00:00Z,27.9396,-96.8429,2.0,24.6415,11111222 
TABS,ioos:station:wmo:42048:1,2013-06-05T21:30:00Z,27.9396,-96.8429,2.0,24.6317,11111222 
TABS,ioos:station:wmo:42048:1,2013-06-05T22:00:00Z,27.9396,-96.8429,2.0,24.6273,11111222 
TABS,ioos:station:wmo:42048:1,2013-06-05T22:30:00Z,27.9396,-96.8429,2.0,24.6394,11111222 
TABS,ioos:station:wmo:42048:1,2013-06-05T23:00:00Z,27.9396,-96.8429,2.0,24.674,11111222 
TABS,ioos:station:wmo:42048:1,2013-06-05T23:30:00Z,27.9396,-96.8429,2.0,24.6888,11111222 
TABS,ioos:station:wmo:42048:1,2013-06-06T00:00:00Z,27.9396,-96.8429,2.0,24.6469,11111222 
TABS,ioos:station:wmo:42048:1,2013-06-06T00:30:00Z,27.9396,-96.8429,2.0,24.6437,11111222 
TABS,ioos:station:wmo:42048:1,2013-06-06T01:00:00Z,27.9396,-96.8429,2.0,24.6519,11111222 
TABS,ioos:station:wmo:42048:1,2013-06-06T01:30:00Z,27.9396,-96.8429,2.0,24.6559,11111222 
TABS,ioos:station:wmo:42048:1,2013-06-06T02:00:00Z,27.9396,-96.8429,2.0,24.6573,11111222 
TABS,ioos:station:wmo:42048:1,2013-06-06T02:30:00Z,27.9396,-96.8429,2.0,24.6577,11111222 
TABS,ioos:station:wmo:42048:1,2013-06-06T03:00:00Z,27.9396,-96.8429,2.0,24.6545,11111222 
TABS,ioos:station:wmo:42048:1,2013-06-06T03:30:00Z,27.9396,-96.8429,2.0,24.6834,11111222 
TABS,ioos:station:wmo:42048:1,2013-06-06T04:00:00Z,27.9396,-96.8429,2.0,24.7208,11111222 
TABS,ioos:station:wmo:42048:1,2013-06-06T04:30:00Z,27.9396,-96.8429,2.0,24.7162,11111222 
TABS,ioos:station:wmo:42048:1,2013-06-06T05:00:00Z,27.9396,-96.8429,2.0,24.7162,11111222 
TABS,ioos:station:wmo:42048:1,2013-06-06T05:30:00Z,27.9396,-96.8429,2.0,24.721,11111222 
TABS,ioos:station:wmo:42048:1,2013-06-06T06:00:00Z,27.9396,-96.8429,2.0,24.726,11111222 
TABS,ioos:station:wmo:42048:1,2013-06-06T06:30:00Z,27.9396,-96.8429,2.0,24.7234,11111222 
TABS,ioos:station:wmo:42048:1,2013-06-06T07:00:00Z,27.9396,-96.8429,2.0,24.7098,11111222 
TABS,ioos:station:wmo:42048:1,2013-06-06T07:30:00Z,27.9396,-96.8429,2.0,24.7579,11111222 
TABS,ioos:station:wmo:42048:1,2013-06-06T08:00:00Z,27.9396,-96.8429,2.0,24.7839,11111222 
TABS,ioos:station:wmo:42048:1,2013-06-06T08:30:00Z,27.9396,-96.8429,2.0,24.7868,11111222 
TABS,ioos:station:wmo:42048:1,2013-06-06T09:00:00Z,27.9396,-96.8429,2.0,25.021,11111222 
TABS,ioos:station:wmo:42048:1,2013-06-06T09:30:00Z,27.9396,-96.8429,2.0,25.1255,11111222 
TABS,ioos:station:wmo:42048:1,2013-06-06T10:00:00Z,27.9396,-96.8429,2.0,25.2261,11111222 
TABS,ioos:station:wmo:42048:1,2013-06-06T10:30:00Z,27.9396,-96.8429,2.0,25.2989,11111222 
TABS,ioos:station:wmo:42048:1,2013-06-06T11:00:00Z,27.9396,-96.8429,2.0,25.3294,11111222 
TABS,ioos:station:wmo:42048:1,2013-06-06T11:30:00Z,27.9396,-96.8429,2.0,25.3742,11111222 
TABS,ioos:station:wmo:42048:1,2013-06-06T12:00:00Z,27.9396,-96.8429,2.0,25.4245,11111222 
TABS,ioos:station:wmo:42048:1,2013-06-06T12:30:00Z,27.9396,-96.8429,2.0,25.4483,11111222 
TABS,ioos:station:wmo:42048:1,2013-06-06T13:00:00Z,27.9396,-96.8429,2.0,25.4453,11111222 
TABS,ioos:station:wmo:42048:1,2013-06-06T13:30:00Z,27.9396,-96.8429,2.0,25.4504,11111222 
TABS,ioos:station:wmo:42048:1,2013-06-06T14:00:00Z,27.9396,-96.8429,2.0,25.3753,11111222 
TABS,ioos:station:wmo:42048:1,2013-06-06T14:30:00Z,27.9396,-96.8429,2.0,25.2469,11111222 
TABS,ioos:station:wmo:42048:1,2013-06-06T15:00:00Z,27.9396,-96.8429,2.0,25.1574,11111222 
TABS,ioos:station:wmo:42048:1,2013-06-06T15:30:00Z,27.9396,-96.8429,2.0,25.2713,11111222 
TABS,ioos:station:wmo:42048:1,2013-06-06T16:00:00Z,27.9396,-96.8429,2.0,24.797,11111222 
TABS,ioos:station:wmo:42048:1,2013-06-06T16:30:00Z,27.9396,-96.8429,2.0,24.7911,11111222 
TABS,ioos:station:wmo:42048:1,2013-06-06T17:00:00Z,27.9396,-96.8429,2.0,24.6516,11111222 
TABS,ioos:station:wmo:42048:1,2013-06-06T17:30:00Z,27.9396,-96.8429,2.0,24.5676,11111222 
TABS,ioos:station:wmo:42048:1,2013-06-06T18:00:00Z,27.9396,-96.8429,2.0,24.3379,11111222 
TABS,ioos:station:wmo:42048:1,2013-06-06T18:30:00Z,27.9396,-96.8429,2.0,24.0715,11111222 
TABS,ioos:station:wmo:42048:1,2013-06-06T19:00:00Z,27.9396,-96.8429,2.0,23.7543,11111222 
TABS,ioos:station:wmo:42048:1,2013-06-06T19:30:00Z,27.9396,-96.8429,2.0,23.6823,11111222 
TABS,ioos:station:wmo:42048:1,2013-06-06T20:00:00Z,27.9396,-96.8429,2.0,23.675,11111222 
TABS,ioos:station:wmo:42048:1,2013-06-06T20:30:00Z,27.9396,-96.8429,2.0,23.5137,11111222 
TABS,ioos:station:wmo:42048:1,2013-06-06T21:00:00Z,27.9396,-96.8429,2.0,23.5368,11111222 
TABS,ioos:station:wmo:42048:1,2013-06-06T21:30:00Z,27.9396,-96.8429,2.0,23.4601,11111222 
TABS,ioos:station:wmo:42048:1,2013-06-06T22:00:00Z,27.9396,-96.8429,2.0,23.4501,11111222 
TABS,ioos:station:wmo:42048:1,2013-06-06T22:30:00Z,27.9396,-96.8429,2.0,23.4638,11111222 
TABS,ioos:station:wmo:42048:1,2013-06-06T23:00:00Z,27.9396,-96.8429,2.0,23.5015,11111222 
TABS,ioos:station:wmo:42048:1,2013-06-06T23:30:00Z,27.9396,-96.8429,2.0,23.5091,11111222 
TABS,ioos:station:wmo:42048:1,2013-06-07T00:00:00Z,27.9396,-96.8429,2.0,23.557,11111222 
TABS,ioos:station:wmo:42048:1,2013-06-07T00:30:00Z,27.9396,-96.8429,2.0,23.6063,11111222 
TABS,ioos:station:wmo:42048:1,2013-06-07T01:00:00Z,27.9396,-96.8429,2.0,23.7268,11111222 
TABS,ioos:station:wmo:42048:1,2013-06-07T01:30:00Z,27.9396,-96.8429,2.0,23.7959,11111222 
TABS,ioos:station:wmo:42048:1,2013-06-07T02:00:00Z,27.9396,-96.8429,2.0,23.9162,11111222 
TABS,ioos:station:wmo:42048:1,2013-06-07T02:30:00Z,27.9396,-96.8429,2.0,24.0376,11111222 
TABS,ioos:station:wmo:42048:1,2013-06-07T03:00:00Z,27.9396,-96.8429,2.0,24.1341,11111222 
TABS,ioos:station:wmo:42048:1,2013-06-07T03:30:00Z,27.9396,-96.8429,2.0,24.3149,11111222 
TABS,ioos:station:wmo:42048:1,2013-06-07T04:00:00Z,27.9396,-96.8429,2.0,24.4069,11111222 
TABS,ioos:station:wmo:42048:1,2013-06-07T04:30:00Z,27.9396,-96.8429,2.0,24.5042,11111222 
TABS,ioos:station:wmo:42048:1,2013-06-07T05:00:00Z,27.9396,-96.8429,2.0,24.5561,11111222 
TABS,ioos:station:wmo:42048:1,2013-06-07T05:30:00Z,27.9396,-96.8429,2.0,24.5976,11111222 
TABS,ioos:station:wmo:42048:1,2013-06-07T06:00:00Z,27.9396,-96.8429,2.0,24.5664,11111222 
TABS,ioos:station:wmo:42048:1,2013-06-07T06:30:00Z,27.9396,-96.8429,2.0,24.5216,11111222 
TABS,ioos:station:wmo:42048:1,2013-06-07T07:00:00Z,27.9396,-96.8429,2.0,24.466,11111222 
TABS,ioos:station:wmo:42048:1,2013-06-07T07:30:00Z,27.9396,-96.8429,2.0,24.4166,11111222 
TABS,ioos:station:wmo:42048:1,2013-06-07T08:00:00Z,27.9396,-96.8429,2.0,24.2581,11111222 
TABS,ioos:station:wmo:42048:1,2013-06-07T08:30:00Z,27.9396,-96.8429,2.0,24.0003,11111222 
TABS,ioos:station:wmo:42048:1,2013-06-07T09:00:00Z,27.9396,-96.8429,2.0,23.8896,11111222 
TABS,ioos:station:wmo:42048:1,2013-06-07T09:30:00Z,27.9396,-96.8429,2.0,23.803,11111222 
TABS,ioos:station:wmo:42048:1,2013-06-07T10:00:00Z,27.9396,-96.8429,2.0,23.5261,11111222 
TABS,ioos:station:wmo:42048:1,2013-06-07T10:30:00Z,27.9396,-96.8429,2.0,23.3273,11111222 
TABS,ioos:station:wmo:42048:1,2013-06-07T11:00:00Z,27.9396,-96.8429,2.0,23.2752,11111222 
TABS,ioos:station:wmo:42048:1,2013-06-07T11:30:00Z,27.9396,-96.8429,2.0,23.1005,11111222 
TABS,ioos:station:wmo:42048:1,2013-06-07T12:00:00Z,27.9396,-96.8429,2.0,22.996,11111222 
TABS,ioos:station:wmo:42048:1,2013-06-07T12:30:00Z,27.9396,-96.8429,2.0,22.9608,11111222 
TABS,ioos:station:wmo:42048:1,2013-06-07T13:00:00Z,27.9396,-96.8429,2.0,22.9013,11111222 
TABS,ioos:station:wmo:42048:1,2013-06-07T13:30:00Z,27.9396,-96.8429,2.0,22.8629,11111222 
TABS,ioos:station:wmo:42048:1,2013-06-07T14:00:00Z,27.9396,-96.8429,2.0,22.9105,11111222 
TABS,ioos:station:wmo:42048:1,2013-06-07T14:30:00Z,27.9396,-96.8429,2.0,23.2893,11111222 
TABS,ioos:station:wmo:42048:1,2013-06-07T15:00:00Z,27.9396,-96.8429,2.0,23.8648,11111222 
TABS,ioos:station:wmo:42048:1,2013-06-07T15:30:00Z,27.9396,-96.8429,2.0,24.1299,11111222 
TABS,ioos:station:wmo:42048:1,2013-06-07T16:00:00Z,27.9396,-96.8429,2.0,25.0765,11111222 
TABS,ioos:station:wmo:42048:1,2013-06-07T16:30:00Z,27.9396,-96.8429,2.0,23.7788,11111222 
TABS,ioos:station:wmo:42048:1,2013-06-07T17:00:00Z,27.9396,-96.8429,2.0,23.7933,11111222 